Time,TemperatureF,DewpointF,PressureIn,WindDirection,WindDirectionDegrees,WindSpeedMPH,WindSpeedGustMPH,Humidity,HourlyPrecipIn,Conditions,Clouds,dailyrainin,SoftwareType,DateUTC
2017-05-28 00:06:00,53.5,53.0,30.10,WNW,302,0.0,0.0,98,0.00,,,0.00,weatherlink.com 1.10,2017-05-28 04:06:00,
2017-05-28 00:21:00,53.4,53.0,30.10,WNW,302,0.0,0.0,98,0.00,,,0.00,weatherlink.com 1.10,2017-05-28 04:21:00,
2017-05-28 00:36:00,53.5,53.0,30.10,WNW,302,0.0,0.0,98,0.00,,,0.00,weatherlink.com 1.10,2017-05-28 04:36:00,
2017-05-28 00:51:00,53.4,53.0,30.10,WNW,302,0.0,0.0,98,0.00,,,0.00,weatherlink.com 1.10,2017-05-28 04:51:00,
2017-05-28 01:06:00,53.2,53.0,30.09,WNW,302,0.0,0.0,98,0.00,,,0.00,weatherlink.com 1.10,2017-05-28 05:06:00,
2017-05-28 01:21:00,53.2,53.0,30.09,WNW,302,0.0,0.0,98,0.00,,,0.00,weatherlink.com 1.10,2017-05-28 05:21:00,
2017-05-28 01:36:00,53.1,53.0,30.10,WNW,302,0.0,0.0,98,0.00,,,0.00,weatherlink.com 1.10,2017-05-28 05:36:00,
2017-05-28 01:51:00,53.3,53.0,30.10,WNW,302,0.0,1.0,98,0.00,,,0.00,weatherlink.com 1.10,2017-05-28 05:51:00,
2017-05-28 02:06:00,53.2,53.0,30.10,WNW,302,0.0,0.0,98,0.00,,,0.00,weatherlink.com 1.10,2017-05-28 06:06:00,
2017-05-28 02:21:00,53.2,53.0,30.10,WNW,302,0.0,0.0,98,0.00,,,0.00,weatherlink.com 1.10,2017-05-28 06:21:00,
2017-05-28 02:36:00,53.1,53.0,30.09,WNW,302,0.0,0.0,98,0.00,,,0.00,weatherlink.com 1.10,2017-05-28 06:36:00,
2017-05-28 02:51:00,53.0,53.0,30.09,WNW,302,0.0,0.0,98,0.00,,,0.00,weatherlink.com 1.10,2017-05-28 06:51:00,
2017-05-28 03:06:00,52.9,52.0,30.08,WNW,302,0.0,0.0,98,0.00,,,0.00,weatherlink.com 1.10,2017-05-28 07:06:00,
2017-05-28 03:21:00,52.8,52.0,30.07,WNW,302,0.0,0.0,98,0.00,,,0.00,weatherlink.com 1.10,2017-05-28 07:21:00,
2017-05-28 03:36:00,52.8,52.0,30.07,WNW,302,0.0,0.0,98,0.00,,,0.00,weatherlink.com 1.10,2017-05-28 07:36:00,
2017-05-28 03:51:00,52.7,52.0,30.07,WNW,302,0.0,0.0,98,0.00,,,0.00,weatherlink.com 1.10,2017-05-28 07:51:00,
2017-05-28 04:06:00,52.7,52.0,30.08,WNW,302,0.0,0.0,98,0.00,,,0.00,weatherlink.com 1.10,2017-05-28 08:06:00,
2017-05-28 04:21:00,52.8,52.0,30.09,WNW,302,0.0,0.0,98,0.00,,,0.00,weatherlink.com 1.10,2017-05-28 08:21:00,
2017-05-28 04:36:00,52.8,52.0,30.09,WNW,302,0.0,0.0,98,0.00,,,0.00,weatherlink.com 1.10,2017-05-28 08:36:00,
2017-05-28 04:52:00,52.7,52.0,30.09,WNW,302,0.0,0.0,98,0.00,,,0.00,weatherlink.com 1.10,2017-05-28 08:52:00,
2017-05-28 05:07:00,52.7,52.0,30.09,WNW,302,0.0,0.0,98,0.00,,,0.00,weatherlink.com 1.10,2017-05-28 09:07:00,
2017-05-28 05:22:00,52.6,52.0,30.08,WNW,302,0.0,0.0,98,0.00,,,0.00,weatherlink.com 1.10,2017-05-28 09:22:00,
2017-05-28 05:37:00,52.6,52.0,30.09,WNW,302,0.0,0.0,98,0.00,,,0.00,weatherlink.com 1.10,2017-05-28 09:37:00,
2017-05-28 05:52:00,52.7,52.0,30.09,WNW,302,0.0,0.0,98,0.00,,,0.00,weatherlink.com 1.10,2017-05-28 09:52:00,
2017-05-28 06:07:00,53.0,53.0,30.10,WNW,302,0.0,0.0,99,0.00,,,0.00,weatherlink.com 1.10,2017-05-28 10:07:00,
2017-05-28 06:22:00,53.3,53.0,30.11,WNW,302,0.0,0.0,99,0.00,,,0.00,weatherlink.com 1.10,2017-05-28 10:22:00,
2017-05-28 06:37:00,53.7,54.0,30.11,WNW,302,0.0,0.0,99,0.00,,,0.00,weatherlink.com 1.10,2017-05-28 10:37:00,
2017-05-28 06:52:00,54.1,54.0,30.11,WNW,298,0.0,0.0,99,0.00,,,0.00,weatherlink.com 1.10,2017-05-28 10:52:00,
2017-05-28 07:07:00,54.3,54.0,30.12,WNW,297,0.0,0.0,99,0.00,,,0.00,weatherlink.com 1.10,2017-05-28 11:07:00,
2017-05-28 07:22:00,54.8,55.0,30.12,NNW,343,0.0,0.0,99,0.00,,,0.00,weatherlink.com 1.10,2017-05-28 11:22:00,
2017-05-28 07:37:00,55.5,55.0,30.11,SW,228,0.0,0.0,99,0.00,,,0.00,weatherlink.com 1.10,2017-05-28 11:37:00,
2017-05-28 07:52:00,56.4,56.0,30.12,South,173,0.0,0.0,99,0.00,,,0.00,weatherlink.com 1.10,2017-05-28 11:52:00,
2017-05-28 08:07:00,56.7,56.0,30.12,South,183,0.0,2.0,98,0.00,,,0.00,weatherlink.com 1.10,2017-05-28 12:07:00,
2017-05-28 08:22:00,57.3,57.0,30.12,South,169,0.0,1.0,97,0.00,,,0.00,weatherlink.com 1.10,2017-05-28 12:22:00,
2017-05-28 08:37:00,58.0,57.0,30.11,SSE,166,0.0,1.0,95,0.00,,,0.00,weatherlink.com 1.10,2017-05-28 12:37:00,
2017-05-28 08:52:00,58.7,56.0,30.11,SE,140,1.0,2.0,92,0.00,,,0.00,weatherlink.com 1.10,2017-05-28 12:52:00,
2017-05-28 09:07:00,59.2,57.0,30.11,SW,222,0.0,2.0,91,0.00,,,0.00,weatherlink.com 1.10,2017-05-28 13:07:00,
2017-05-28 09:22:00,60.2,57.0,30.11,SSE,150,4.0,4.0,88,0.00,,,0.00,weatherlink.com 1.10,2017-05-28 13:22:00,
2017-05-28 09:37:00,60.9,57.0,30.09,SW,225,1.0,3.0,88,0.00,,,0.00,weatherlink.com 1.10,2017-05-28 13:37:00,
2017-05-28 09:52:00,62.8,58.0,30.09,SW,215,1.0,4.0,84,0.00,,,0.00,weatherlink.com 1.10,2017-05-28 13:52:00,
2017-05-28 10:07:00,64.3,58.0,30.09,South,186,5.0,6.0,80,0.00,,,0.00,weatherlink.com 1.10,2017-05-28 14:07:00,
2017-05-28 10:22:00,64.8,57.0,30.08,ENE,68,4.0,5.0,77,0.00,,,0.00,weatherlink.com 1.10,2017-05-28 14:22:00,
2017-05-28 10:37:00,65.1,57.0,30.09,ESE,108,1.0,4.0,75,0.00,,,0.00,weatherlink.com 1.10,2017-05-28 14:37:00,
2017-05-28 10:52:00,65.6,57.0,30.09,SSE,156,0.0,4.0,74,0.00,,,0.00,weatherlink.com 1.10,2017-05-28 14:52:00,
2017-05-28 11:07:00,65.8,57.0,30.10,South,184,4.0,5.0,73,0.00,,,0.00,weatherlink.com 1.10,2017-05-28 15:07:00,
2017-05-28 11:22:00,65.1,57.0,30.09,SE,139,1.0,3.0,76,0.00,,,0.00,weatherlink.com 1.10,2017-05-28 15:22:00,
2017-05-28 11:37:00,64.8,56.0,30.09,SE,139,3.0,8.0,74,0.00,,,0.00,weatherlink.com 1.10,2017-05-28 15:37:00,
2017-05-28 11:52:00,65.0,56.0,30.10,SW,225,4.0,6.0,72,0.00,,,0.00,weatherlink.com 1.10,2017-05-28 15:52:00,
2017-05-28 12:07:00,65.2,56.0,30.10,SE,143,2.0,7.0,72,0.00,,,0.00,weatherlink.com 1.10,2017-05-28 16:07:00,
2017-05-28 12:22:00,65.1,56.0,30.11,SW,219,1.0,4.0,73,0.00,,,0.00,weatherlink.com 1.10,2017-05-28 16:22:00,
2017-05-28 12:38:00,64.6,56.0,30.11,WSW,253,2.0,6.0,74,0.00,,,0.00,weatherlink.com 1.10,2017-05-28 16:38:00,
2017-05-28 12:52:00,64.8,58.0,30.11,SSE,156,3.0,7.0,78,0.00,,,0.00,weatherlink.com 1.10,2017-05-28 16:52:00,
2017-05-28 13:08:00,65.6,58.0,30.11,ESE,117,0.0,5.0,75,0.00,,,0.00,weatherlink.com 1.10,2017-05-28 17:08:00,
2017-05-28 13:23:00,65.7,58.0,30.11,NNE,23,1.0,6.0,75,0.00,,,0.00,weatherlink.com 1.10,2017-05-28 17:23:00,
2017-05-28 13:38:00,66.2,58.0,30.09,SW,222,3.0,7.0,76,0.00,,,0.00,weatherlink.com 1.10,2017-05-28 17:38:00,
2017-05-28 13:53:00,66.3,57.0,30.09,SSE,167,3.0,6.0,73,0.00,,,0.00,weatherlink.com 1.10,2017-05-28 17:53:00,
2017-05-28 14:08:00,66.1,58.0,30.09,SSE,158,0.0,6.0,74,0.00,,,0.00,weatherlink.com 1.10,2017-05-28 18:08:00,
2017-05-28 14:23:00,67.4,59.0,30.09,SSW,203,7.0,7.0,74,0.00,,,0.00,weatherlink.com 1.10,2017-05-28 18:23:00,
2017-05-28 14:38:00,66.4,58.0,30.09,SSW,210,0.0,7.0,74,0.00,,,0.00,weatherlink.com 1.10,2017-05-28 18:38:00,
2017-05-28 14:53:00,65.4,57.0,30.09,SSE,158,5.0,6.0,74,0.00,,,0.00,weatherlink.com 1.10,2017-05-28 18:53:00,
2017-05-28 15:08:00,64.8,56.0,30.09,SSW,209,2.0,6.0,73,0.00,,,0.00,weatherlink.com 1.10,2017-05-28 19:08:00,
2017-05-28 15:23:00,65.5,57.0,30.08,SW,224,4.0,4.0,75,0.00,,,0.00,weatherlink.com 1.10,2017-05-28 19:23:00,
2017-05-28 15:38:00,65.5,57.0,30.08,ESE,121,1.0,6.0,74,0.00,,,0.00,weatherlink.com 1.10,2017-05-28 19:38:00,
2017-05-28 15:53:00,65.0,57.0,30.08,SE,143,2.0,5.0,76,0.00,,,0.00,weatherlink.com 1.10,2017-05-28 19:53:00,
2017-05-28 16:08:00,64.0,56.0,30.07,ESE,122,1.0,9.0,76,0.00,,,0.00,weatherlink.com 1.10,2017-05-28 20:08:00,
2017-05-28 16:23:00,63.0,56.0,30.07,SW,221,1.0,10.0,78,0.00,,,0.00,weatherlink.com 1.10,2017-05-28 20:23:00,
2017-05-28 16:38:00,62.1,56.0,30.07,SSE,152,1.0,5.0,79,0.00,,,0.00,weatherlink.com 1.10,2017-05-28 20:38:00,
2017-05-28 16:53:00,61.9,56.0,30.07,SSE,165,1.0,5.0,80,0.00,,,0.00,weatherlink.com 1.10,2017-05-28 20:53:00,
2017-05-28 17:08:00,62.3,56.0,30.07,SSE,163,0.0,7.0,79,0.00,,,0.00,weatherlink.com 1.10,2017-05-28 21:08:00,
2017-05-28 17:23:00,62.4,56.0,30.07,ENE,77,2.0,3.0,79,0.00,,,0.00,weatherlink.com 1.10,2017-05-28 21:23:00,
2017-05-28 17:38:00,62.9,56.0,30.07,ESE,121,2.0,4.0,77,0.00,,,0.00,weatherlink.com 1.10,2017-05-28 21:38:00,